[[{"header":{"parameterUnit":"m.s-1","parameterCategory":1,"la1":30.2992,"la2":30.254,"lo1":-89.0895,"lo2":-89.0443,"dy":0.0025,"dx":0.0025,"nx":19,"ny":19,"refTime":"2026-04-09T09:00:00:Z","depth":0,"parameterNumber":2,"parameterNumberName":"U-component_of_WINDS"},"data":[0,0,0,-5.8993,-5.8996,-5.9107,-5.9107,-5.9303,-5.9305,0,0,0,0,0,0,0,0,0,0,0,-5.8993,-5.8995,-5.8992,-5.8996,-5.9107,-5.9107,-5.9302,-5.9305,0,0,0,0,0,0,0,0,0,0,0,-5.8992,-5.8995,-5.8998,-5.8997,-5.9107,-5.9107,-5.9302,-5.9199,0,0,0,0,0,0,0,0,0,0,-5.9082,-5.9115,-5.8994,-5.8998,-5.8997,-5.9107,-5.9107,-5.9193,-5.9205,-5.9276,0,-5.9348,0,-5.933,-5.9322,-5.9322,0,0,0,-5.8971,-5.9105,-5.9105,-5.8998,-5.8999,-5.9107,-5.905,-5.9199,-5.9213,-5.9292,-5.935,-5.9356,-5.9333,-5.9323,-5.9324,-5.9813,-5.9816,0,0,-5.8965,-5.9031,-5.9095,-5.9115,-5.9102,-5.9047,-5.9054,-5.9207,-5.9274,-5.935,-5.9359,-5.9336,-5.9325,-5.9327,-5.981,-5.9814,0,0,0,-5.8964,-5.9028,-5.9022,-5.9109,-5.9125,-5.905,-5.9058,-5.9267,-5.926,-5.9361,-5.9339,-5.9326,-5.9329,-5.9806,-5.9811,-6.0044,0,0,0,-5.8959,-5.9027,-5.9021,-5.9063,-5.9123,-5.9198,-5.9116,-5.9249,-5.9264,-5.9338,-5.9326,-5.9332,-5.9802,-5.9809,-6.003,-6.0143,0,0,0,-5.8974,-5.9028,-5.9056,-5.9066,-5.9116,-5.9193,-5.9194,-5.9251,-5.9252,-5.9323,-5.9332,-5.9799,-5.9808,-6.0017,-6.0122,-6.029,0,0,0,-5.9009,-5.9263,-5.9061,-5.9335,-5.9116,-5.9337,-5.9192,-5.9354,-5.9443,-5.9328,-5.9803,-5.9811,-6.0012,-6.0108,-6.0276,-6.0442,-6.0518,0,0,-5.9366,-5.9308,-5.9464,-5.9286,-5.9561,-5.9315,-5.9623,-5.9642,-5.9589,-5.9741,-5.9752,-6.0034,-6.012,-6.0287,-6.0922,-6.0983,0,0,0,-5.9599,-5.9712,-5.977,-5.9857,-5.9878,-5.9904,-5.9868,-5.9875,-6.0001,-5.9681,-6.0139,-6.0188,-6.0283,-6.0359,-6.0411,-6.0488,-5.9849,-5.9848,-5.9848,-6.0197,-6.0115,-6.0366,-6.0298,-6.0384,-6.0344,-6.0406,-6.0408,-6.0301,-6.041,-6.0455,-6.085,-6.0942,-6.098,-6.1061,-6.0537,-6.0538,-6.0538,-6.0539,-6.071,-6.0856,-6.0706,-6.0896,-6.0807,-6.0966,-6.0937,-6.0856,-6.099,-6.081,-6.089,-6.0699,-6.1049,-6.1115,-6.0556,-6.0553,-6.0551,-6.0549,-6.0548,-6.1092,-6.1147,-6.115,-6.1266,-6.1365,-6.1286,-6.1421,-6.1336,-6.1257,-6.1336,-6.1372,-6.1368,-6.1351,-6.1359,-6.1361,-6.1362,-6.1363,-6.1364,-6.1365,-6.1486,-6.1482,-6.1606,-6.1648,-6.1692,-6.1738,-6.1701,-6.1741,-6.1764,-6.1691,-6.169,-6.1572,-6.1099,-6.0982,-6.1386,-6.1382,-6.1379,-6.1377,-6.1376,-6.2034,-6.1895,-6.2088,-6.2132,-6.2173,-6.2276,-6.2165,-6.2254,-6.2275,-6.2345,-6.2209,-6.1874,-6.1809,-6.1767,-6.1669,-6.2227,-6.2227,-6.2227,-6.2227,-6.2354,-6.2313,-6.2489,-6.2564,-6.2628,-6.2547,-6.2766,-6.2739,-6.269,-6.2697,-6.2604,-6.2467,-6.2429,-6.2386,-6.2331,-6.2238,-6.2928,-6.2929,-6.2929,-6.2686,-6.2646,-6.2849,-6.2798,-6.2823,-6.2847,-6.305,-6.3142,-6.3057,-6.2956,-6.2701,-6.2671,-6.2449,-6.2381,-6.2273,-6.219,-6.2017,0,0]},{"header":{"parameterUnit":"m.s-1","parameterCategory":1,"la1":30.2992,"la2":30.254,"lo1":-89.0895,"lo2":-89.0443,"dy":0.0025,"dx":0.0025,"nx":19,"ny":19,"refTime":"2026-04-09T09:00:00:Z","depth":0,"parameterNumber":3,"parameterNumberName":"V-component_of_WINDS"},"data":[0,0,0,0.0089,0.009,0.0106,0.0106,0.0145,0.0145,0,0,0,0,0,0,0,0,0,0,0,0.0094,0.0095,0.0089,0.009,0.0106,0.0106,0.0144,0.0145,0,0,0,0,0,0,0,0,0,0,0,0.0094,0.0095,0.0096,0.009,0.0106,0.0106,0.0144,0.0126,0,0,0,0,0,0,0,0,0,0,0.0107,0.0122,0.0095,0.0096,0.009,0.0106,0.0106,0.0125,0.0127,0.0145,0,0.0163,0,0.0155,0.0149,0.0149,0,0,0,0.0082,0.012,0.0115,0.0096,0.009,0.0106,0.0096,0.0126,0.0129,0.0148,0.0163,0.0164,0.0155,0.0149,0.0149,0.0278,0.0279,0,0,0.0081,0.0103,0.0113,0.0117,0.0115,0.0096,0.0097,0.0127,0.0145,0.0163,0.0165,0.0156,0.015,0.015,0.0277,0.0278,0,0,0,0.0084,0.0102,0.0096,0.0116,0.0118,0.0097,0.0098,0.0144,0.014,0.0165,0.0156,0.015,0.0151,0.0276,0.0277,0.0347,0,0,0,0.0083,0.0104,0.0097,0.011,0.0118,0.0131,0.0114,0.0138,0.0141,0.0156,0.015,0.0151,0.0275,0.0277,0.0343,0.0377,0,0,0,0.009,0.0104,0.011,0.0111,0.0119,0.013,0.0127,0.0138,0.0136,0.0149,0.0151,0.0274,0.0276,0.0339,0.037,0.0419,0,0,0,0.0103,0.017,0.0112,0.0183,0.0119,0.0172,0.0127,0.0165,0.0185,0.015,0.0275,0.0277,0.0338,0.0366,0.0415,0.0465,0.0487,0,0,0.02,0.0182,0.0223,0.0171,0.0241,0.0168,0.0248,0.0245,0.0226,0.0262,0.0265,0.0344,0.037,0.0418,0.0601,0.0619,0,0,0,0.0261,0.0291,0.0304,0.0324,0.0324,0.0328,0.031,0.031,0.034,0.0249,0.0373,0.0388,0.0415,0.0438,0.0453,0.0477,0.0288,0.0288,0.0288,0.0428,0.0402,0.0468,0.0445,0.0465,0.0447,0.0462,0.0458,0.0424,0.0454,0.0465,0.058,0.0607,0.0618,0.0643,0.0488,0.0488,0.0488,0.0488,0.0568,0.0607,0.0563,0.0611,0.0584,0.0624,0.0611,0.0587,0.0621,0.0568,0.0591,0.0537,0.0639,0.0659,0.0493,0.0493,0.0492,0.0491,0.0491,0.0677,0.0691,0.069,0.0718,0.0743,0.0717,0.0753,0.0726,0.07,0.0723,0.0733,0.0732,0.0729,0.0729,0.073,0.073,0.0731,0.0731,0.0731,0.079,0.0786,0.082,0.0828,0.0839,0.085,0.0835,0.0845,0.085,0.0827,0.0827,0.0793,0.0653,0.062,0.0737,0.0736,0.0735,0.0735,0.0734,0.0945,0.0906,0.0959,0.0971,0.0979,0.1008,0.0972,0.0996,0.1001,0.102,0.0981,0.0881,0.0862,0.0849,0.0822,0.0985,0.0985,0.0985,0.0985,0.1038,0.1026,0.1075,0.1096,0.1112,0.1087,0.115,0.114,0.1124,0.1126,0.1098,0.1058,0.1047,0.1034,0.1018,0.0992,0.1194,0.1194,0.1195,0.1134,0.1122,0.118,0.1164,0.117,0.1175,0.1235,0.1261,0.1234,0.1203,0.1127,0.1118,0.1054,0.1034,0.1002,0.0977,0.0929,0,0]}]]